DW1053 Weather Reports


Display with metric or nautical units.
time (UTC)temp
F
wind
direction
speed
MPH
gust
MPH
rain 1hr
in
rain 24hr
in
rain mn
in
humidity
%
barometer
mb
20260902130206 82 326 1.0 8.0 0.00 0.00 0.00 29 1017.0
20260902120207 82 309 0.0 11.0 0.00 0.00 0.00 32 1017.2
20260902110229 80 229 0.0 1.0 0.00 0.00 0.00 38 1017.6
20260902100206 77 192 0.0 3.0 0.00 0.00 0.00 44 1018.0
20260902090207 69 167 0.0 1.0 0.00 0.00 0.00 57 1017.9
20260902080209 65 180 0.0 1.0 0.00 0.00 0.00 69 1017.4
20260902070206 60 103 0.0 1.0 0.00 0.00 0.00 75 1017.0
20260902060208 58 127 0.0 2.0 0.00 0.00 0.00 81 1016.8
20260902050206 58 123 0.0 1.0 0.00 0.00 0.00 82 1016.5
20260902040206 58 123 0.0 0.0 0.00 0.00 0.00 82 1016.2
20260902030206 59 128 0.0 0.0 0.00 0.00 0.00 81 1016.3
20260902020207 60 128 0.0 1.0 0.00 0.00 0.00 79 1016.5
20260902010207 61 127 0.0 1.0 0.00 0.00 0.00 76 1016.6
20260902000207 62 128 0.0 0.0 0.00 0.00 0.00 73 1016.7
20260901220206 66 121 0.0 0.0 0.00 0.00 0.00 59 1016.8
20260901210206 68 123 0.0 0.0 0.00 0.00 0.00 55 1017.1
20260901200207 68 246 0.0 0.0 0.00 0.00 0.00 58 1017.1
20260901190206 70 246 0.0 0.0 0.00 0.00 0.00 51 1017.0
20260901180207 73 246 0.0 1.0 0.00 0.00 0.00 41 1016.4
20260901170206 75 267 0.0 1.0 0.00 0.00 0.00 37 1016.6
20260901160208 77 340 0.0 13.0 0.00 0.00 0.00 34 1016.6
20260901150207 77 294 0.0 7.0 0.00 0.00 0.00 34 1016.7
20260901140208 79 173 1.0 11.0 0.00 0.00 0.00 35 1017.0